Cocoa Beach, FL

2:10 AM EDT on May 30, 2017 (GMT -0400)
Patrick Air Force Base

Weather History for KCOF - January, 2013

Change the Weather History Date:

Saturday, January 5, 2013

  Actual Average Record
Temperature  
Mean Temperature 67 °F -  
Max Temperature 74 °F 67 °F 82 °F (1997)
Min Temperature 60 °F 54 °F 39 °F (1999)
Cooling Degree Days 2    
Growing Degree Days 17 (Base 50)    
Moisture  
Dew Point 63 °F    
Average Humidity 87    
Maximum Humidity 100    
Minimum Humidity 65    
Precipitation  
Precipitation 0.05 in - - ()
Sea Level Pressure  
Sea Level Pressure 30.25 in    
Wind  
Wind Speed 10 mph (North)    
Max Wind Speed 15 mph    
Max Gust Speed -    
Visibility 9 miles    
Events Rain    
Averages and records for this station are not official NWS values.
T = Trace of Precipitation, MM = Missing Value Source: NWS Daily Summary

Daily Weather History Graph

Daily Weather History Graph

Search for Another Location

Airport or City:

Trip Planner

Search our weather history database for the weather conditions in past years. The results will help you decide how hot, cold, wet, or windy it might be!

Date:

Astronomy

Jan. 05, 2013 Rise Set
Actual Time 7:15 AM EST 5:40 PM EST
Civil Twilight 6:49 AM EST 6:06 PM EST
Nautical Twilight 6:20 AM EST 6:35 PM EST
Astronomical Twilight 5:51 AM EST 7:04 PM EST
Moon 12:37 AM EST (1/5) 12:15 PM EST (1/5)
Length of Visible Light 11h 16m
Length of Day
10h 25m
Last Quarter, 44% of the Moon is Illuminated
Jan 5
Last Quarter
Jan 11
New
Jan 18
First Quarter
Jan 26
Full
Feb 3
Last Quarter

Hourly Weather History & Observations

Time (EST) Temp. Dew Point Humidity Pressure Visibility Wind Dir Wind Speed Gust Speed Precip Events Conditions
12:09 AM 60.8 °F 59.0 °F 94% 30.27 in 10.0 mi NNW 11.5 mph - N/A   Overcast
12:45 AM 60.8 °F 59.0 °F 94% 30.26 in 10.0 mi NNW 12.7 mph - N/A   Overcast
12:55 AM 61.2 °F 59.2 °F 93% 30.27 in 10.0 mi NNW 11.5 mph - N/A   Overcast
1:06 AM 60.8 °F 59.0 °F 94% 30.26 in 10.0 mi NNW 12.7 mph - N/A   Overcast
1:35 AM 62.6 °F 59.0 °F 88% 30.26 in 10.0 mi NW 13.8 mph - N/A   Overcast
1:55 AM 61.7 °F 59.2 °F 91% 30.26 in 10.0 mi NNW 13.8 mph - N/A   Overcast
2:11 AM 60.8 °F 59.0 °F 94% 30.26 in 10.0 mi NNW 13.8 mph - N/A   Overcast
2:44 AM 60.8 °F 57.2 °F 88% 30.25 in 10.0 mi NNW 15.0 mph - N/A   Overcast
2:55 AM 61.7 °F 57.4 °F 86% 30.25 in 10.0 mi NNW 13.8 mph - N/A   Overcast
3:27 AM 62.6 °F 57.2 °F 82% 30.25 in 10.0 mi NNW 10.4 mph - N/A   Mostly Cloudy
3:36 AM 62.6 °F 57.2 °F 82% 30.25 in 10.0 mi NNW 9.2 mph - N/A   Mostly Cloudy
3:42 AM 62.6 °F 59.0 °F 88% 30.25 in 10.0 mi NNW 10.4 mph - N/A   Mostly Cloudy
3:55 AM 62.2 °F 58.5 °F 87% 30.25 in 10.0 mi NNW 10.4 mph - N/A   Mostly Cloudy
3:56 AM 62.6 °F 57.2 °F 82% 30.25 in 10.0 mi NNW 8.1 mph - N/A   Overcast
4:00 AM 62.6 °F 57.2 °F 82% 30.25 in 10.0 mi NNW 10.4 mph - N/A   Overcast
4:35 AM 62.6 °F 57.2 °F 82% 30.25 in 10.0 mi NNW 11.5 mph - N/A   Overcast
4:41 AM 62.6 °F 57.2 °F 82% 30.25 in 10.0 mi NNW 11.5 mph - N/A   Overcast
4:55 AM 61.7 °F 57.2 °F 85% 30.25 in 10.0 mi NNW 10.4 mph - N/A   Overcast
5:55 AM 62.2 °F 56.5 °F 81% 30.26 in 10.0 mi NNW 10.4 mph - N/A   Overcast
6:55 AM 62.4 °F 56.3 °F 80% 30.27 in 10.0 mi NNW 12.7 mph - N/A   Overcast
6:57 AM 62.6 °F 57.2 °F 82% 30.27 in 10.0 mi NNW 9.2 mph - N/A   Overcast
7:55 AM 62.4 °F 56.8 °F 82% 30.29 in 10.0 mi NNW 9.2 mph - N/A   Overcast
8:55 AM 63.9 °F 56.7 °F 77% 30.30 in 10.0 mi NW 10.4 mph - N/A   Overcast
9:55 AM 66.0 °F 57.7 °F 75% 30.30 in 10.0 mi NNW 10.4 mph - N/A   Mostly Cloudy
10:55 AM 72.0 °F 59.7 °F 65% 30.30 in 10.0 mi NNW 8.1 mph - N/A   Mostly Cloudy
11:55 AM 73.6 °F 61.0 °F 65% 30.27 in 10.0 mi NNE 13.8 mph - N/A   Clear
12:55 PM 74.1 °F 61.9 °F 65% 30.23 in 10.0 mi NNE 15.0 mph - N/A   Clear
1:55 PM 73.8 °F 64.2 °F 72% 30.22 in 10.0 mi NNE 12.7 mph - N/A   Clear
2:22 PM 73.4 °F 64.4 °F 73% 30.21 in 10.0 mi NNE 11.5 mph - N/A   Mostly Cloudy
2:55 PM 72.5 °F 64.9 °F 77% 30.21 in 10.0 mi NNE 11.5 mph - N/A   Overcast
3:46 PM 71.6 °F 64.4 °F 78% 30.21 in 10.0 mi North 10.4 mph - N/A   Overcast
3:55 PM 71.4 °F 65.1 °F 80% 30.21 in 10.0 mi North 10.4 mph - N/A   Overcast
4:38 PM 71.6 °F 64.4 °F 78% 30.21 in 10.0 mi North 10.4 mph - N/A   Overcast
4:55 PM 71.1 °F 64.9 °F 81% 30.21 in 10.0 mi North 9.2 mph - N/A   Overcast
4:58 PM 71.6 °F 66.2 °F 83% 30.22 in 10.0 mi North 9.2 mph - N/A   Mostly Cloudy
5:10 PM 71.6 °F 64.4 °F 78% 30.22 in 10.0 mi North 8.1 mph - N/A   Mostly Cloudy
5:23 PM 71.6 °F 64.4 °F 78% 30.22 in 10.0 mi North 8.1 mph - N/A   Mostly Cloudy
5:55 PM 70.9 °F 64.8 °F 81% 30.22 in 10.0 mi NNW 5.8 mph - 0.00 in   Light Drizzle
6:03 PM 69.8 °F 66.2 °F 88% 30.22 in 10.0 mi North 6.9 mph - N/A   Overcast
6:08 PM 69.8 °F 66.2 °F 88% 30.22 in 10.0 mi North 8.1 mph - N/A   Overcast
6:13 PM 69.8 °F 66.2 °F 88% 30.23 in 10.0 mi North 8.1 mph - N/A   Overcast
6:55 PM 70.3 °F 65.5 °F 85% 30.24 in 10.0 mi NW 6.9 mph - 0.00 in   Overcast
7:15 PM 69.8 °F 66.2 °F 88% 30.24 in 6.0 mi NW 6.9 mph - N/A   Light Drizzle
7:30 PM 69.8 °F 66.2 °F 88% 30.25 in 4.0 mi NNW 5.8 mph - N/A   Light Drizzle
7:55 PM 69.4 °F 66.6 °F 91% 30.25 in 5.0 mi NE 8.1 mph - 0.00 in   Light Drizzle
8:11 PM 69.8 °F 68.0 °F 94% 30.25 in 2.5 mi NE 10.4 mph - N/A   Light Drizzle
8:12 PM 69.8 °F 68.0 °F 94% 30.25 in 2.5 mi NE 10.4 mph - N/A   Light Drizzle
8:22 PM 69.8 °F 68.0 °F 94% 30.25 in 2.5 mi NNE 4.6 mph - N/A   Light Drizzle
8:23 PM 69.8 °F 68.0 °F 94% 30.25 in 3.0 mi NNE 4.6 mph - N/A   Light Drizzle
8:33 PM 69.8 °F 68.0 °F 94% 30.26 in 5.0 mi Calm Calm - N/A   Light Drizzle
8:38 PM 69.8 °F 68.0 °F 94% 30.26 in 6.0 mi North 3.5 mph - N/A   Drizzle
8:55 PM 68.9 °F 67.1 °F 94% 30.26 in 4.0 mi NNE 4.6 mph - 0.02 in   Light Drizzle
9:15 PM 68.0 °F 66.2 °F 94% 30.26 in 8.0 mi NNE 8.1 mph - N/A Rain Light Rain
9:26 PM 68.0 °F 66.2 °F 94% 30.26 in 8.0 mi NNE 8.1 mph - N/A   Light Drizzle
9:37 PM 68.0 °F 66.2 °F 94% 30.26 in 10.0 mi NE 6.9 mph - N/A   Overcast
9:38 PM 68.0 °F 68.0 °F 100% 30.26 in 10.0 mi NE 4.6 mph - N/A   Overcast
9:55 PM 68.4 °F 67.3 °F 96% 30.26 in 10.0 mi NE 8.1 mph - 0.02 in   Overcast
10:00 PM 68.0 °F 68.0 °F 100% 30.26 in 10.0 mi NE 9.2 mph - N/A   Drizzle
10:22 PM 68.0 °F 68.0 °F 100% 30.25 in 9.0 mi NE 10.4 mph - N/A   Light Drizzle
10:26 PM 68.0 °F 68.0 °F 100% 30.25 in 9.0 mi NE 9.2 mph - N/A   Overcast
10:55 PM 68.5 °F 67.1 °F 95% 30.24 in 10.0 mi NE 9.2 mph - 0.01 in   Overcast
11:16 PM 68.0 °F 68.0 °F 100% 30.23 in 10.0 mi NE 8.1 mph - N/A   Overcast
11:23 PM 68.0 °F 68.0 °F 100% 30.23 in 10.0 mi NE 6.9 mph - N/A   Overcast
11:55 PM 68.7 °F 66.6 °F 93% 30.22 in 10.0 mi ENE 4.6 mph - N/A   Overcast